EW0112 Weather Reports


Display with metric or nautical units.
time (UTC)temp
F
wind
direction
speed
MPH
gust
MPH
rain 1hr
in
rain 24hr
in
rain mn
in
humidity
%
barometer
mb
20200226103048 46 141 0.0 0.0 0.00 0.00 0.00 98 962.4
20200226101558 46 146 0.0 0.0 0.00 0.00 0.00 98 962.3
20200226100034 46 96 0.0 2.0 0.00 0.00 0.00 98 962.1
20200226093133 46 56 1.0 4.0 0.00 0.00 0.00 97 962.0
20200226090113 47 102 3.0 4.0 0.00 0.00 0.00 97 962.0
20200226083107 47 141 0.0 2.0 0.00 0.00 0.00 97 962.0
20200226081611 46 200 0.0 0.0 0.00 0.00 0.00 97 962.0
20200226080052 46 93 1.0 2.0 0.00 0.00 0.00 97 962.1
20200226073059 46 79 0.0 0.0 0.00 0.00 0.00 97 962.2
20200226071545 0 0.0 0.0 0.00 0.00 0.00 962.1
20200226070020 0 0.0 0.0 0.00 0.00 0.00 962.0
20200226063016 0 0.0 0.0 0.00 0.00 0.00 962.0
20200226061548 0 0.0 0.0 0.00 0.00 0.00 962.1
20200226060017 46 18 0.0 0.0 0.00 0.00 0.00 97 961.9
20200226053005 47 259 0.0 0.0 0.00 0.00 0.00 97 962.1
20200226051508 47 258 0.0 0.0 0.00 0.00 0.00 97 962.3
20200226050005 47 259 0.0 0.0 0.00 0.00 0.00 97 962.2
20200226043005 47 259 0.0 0.0 0.00 0.00 0.00 97 962.3
20200226041535 47 259 0.0 0.0 0.00 0.00 0.00 97 962.4
20200226040006 47 259 0.0 0.0 0.00 0.00 0.00 97 962.4
20200226031504 0 0.0 0.0 0.00 0.00 0.00 962.4
20200226030011 47 0.0 0.0 0.00 0.00 0.00 97 962.2
20200226023140 47 198 0.0 0.0 0.00 0.00 0.00 97 961.9
20200226021633 47 198 0.0 0.0 0.00 0.00 0.00 97 961.9
20200226020139 47 217 0.0 0.0 0.00 0.00 0.00 97 961.8
20200226013131 47 217 0.0 0.0 0.00 0.00 0.00 97 961.6
20200226011714 47 217 0.0 0.0 0.00 0.00 0.00 97 961.4
20200226010132 47 100 0.0 0.0 0.00 0.00 0.00 97 961.4
20200226003145 46 100 0.0 0.0 0.00 0.00 0.00 97 961.4
20200226001934 46 90 0.0 1.0 0.00 0.00 0.00 97 961.1
20200226000240 46 83 2.0 4.0 0.00 0.00 0.00 97 961.0
20200225233129 46 104 0.0 1.0 0.00 0.00 0.00 97 960.7
20200225231714 46 96 2.0 2.0 0.00 0.00 0.00 97 960.5
20200225230204 47 89 0.0 1.0 0.00 0.00 0.00 97 960.2
20200225223234 48 91 0.0 0.0 0.00 0.00 0.00 97 960.0
20200225221737 48 90 0.0 0.0 0.00 0.00 0.00 97 959.8
20200225220238 47 90 0.0 0.0 0.00 0.00 0.00 97 959.6
20200225213313 48 84 0.0 0.0 0.00 0.00 0.00 97 959.4
20200225211704 47 99 0.0 0.0 0.00 0.00 0.00 96 959.2
20200225210059 48 79 0.0 0.0 0.00 0.00 0.00 97 959.4
20200225203131 47 90 1.0 2.0 0.00 0.00 0.00 96 959.2
20200225201704 48 98 2.0 2.0 0.00 0.00 0.00 96 959.0
20200225200212 48 211 1.0 2.0 0.00 0.00 0.00 96 958.9
20200225193124 48 201 1.0 2.0 0.00 0.00 0.00 96 959.0
20200225191835 48 212 2.0 3.0 0.00 0.00 0.00 96 958.9
20200225190102 48 217 2.0 3.0 0.00 0.00 0.00 96 959.1
20200225183242 48 218 3.0 4.0 0.00 0.00 0.00 96 959.2
20200225181645 48 212 3.0 5.0 0.00 0.00 0.00 96 959.1
20200225180220 47 226 2.0 4.0 0.00 0.00 0.00 96 959.4
20200225173110 47 201 2.0 3.0 0.00 0.00 0.00 96 960.0
20200225171654 46 215 2.0 4.0 0.00 0.00 0.00 96 960.3
20200225170047 46 229 0.0 4.0 0.00 0.00 0.00 96 960.5
20200225163152 46 215 2.0 4.0 0.00 0.00 0.00 96 960.8
20200225161546 46 219 1.0 4.0 0.00 0.00 0.00 96 960.9
20200225160115 46 239 1.0 5.0 0.00 0.00 0.00 96 961.0
20200225153055 46 226 3.0 6.0 0.00 0.00 0.00 96 961.3
20200225151547 45 217 3.0 6.0 0.00 0.00 0.00 96 961.4
20200225150054 45 224 4.0 8.0 0.00 0.00 0.00 96 961.4
20200225143111 45 250 1.0 4.0 0.00 0.00 0.00 96 961.9
20200225141617 45 250 1.0 4.0 0.00 0.00 0.00 96 961.9
20200225140058 45 222 3.0 6.0 0.00 0.00 0.00 96 961.8
20200225133032 45 253 1.0 3.0 0.00 0.00 0.00 96 961.9
20200225131527 0 0.0 0.0 0.00 0.00 0.00 961.9
20200225130027 0 0.0 0.0 0.00 0.00 0.00 962.0
20200225123014 0 0.0 0.0 0.00 0.00 0.00 961.9
20200225121505 0 0.0 0.0 0.00 0.00 0.00 961.8
20200225113127 0 0.0 0.0 0.00 0.00 0.00 962.0
20200225111646 0 0.0 0.0 0.00 0.00 0.00 962.0
20200225110135 0 0.0 0.0 0.00 0.00 0.00 962.0